Theta_e
346 352 362 361 361 362 361 360 362 362 362 360 362 362 363 363 363 363 362 362 361 362 362 360 361 357 356 357 359 359 359 359 359 358 359 359 359 358 357 357 357 353 358
349 354 360 361 362 361 359 359 359 360 361 362 361 362 363 363 362 363 362 361 362 362 361 361 361 357 359 360 360 360 359 362 361 359 359 360 360 359 358 358 358 354 358
352 355 355 361 361 359 358 357 357 358 359 361 362 360 362 362 361 362 362 361 362 362 360 361 359 360 360 360 359 359 360 358 357 359 358 350 350 359 358 358 356 354 356
354 355 356 362 360 362 358 358 358 357 357 360 360 361 362 362 362 361 362 362 362 363 361 360 359 359 359 359 359 357 353 354 356 356 349 351 349 356 358 357 358 357 355
351 353 353 360 362 362 361 361 361 361 359 359 359 361 362 362 361 362 362 363 362 361 361 360 359 358 357 357 357 356 357 357 356 353 348 348 349 354 357 357 357 358 358
350 350 361 362 361 362 361 360 360 361 360 360 360 360 361 361 362 362 363 362 360 360 360 360 359 357 356 357 357 358 359 357 356 350 349 352 349 354 354 354 357 355 355
347 351 355 363 362 361 362 360 361 361 360 361 359 359 360 361 361 362 361 362 360 359 359 359 358 357 358 359 360 359 357 356 348 348 349 350 350 355 353 353 353 355 358
351 352 355 362 361 361 361 361 361 360 359 360 359 359 359 361 361 361 362 361 361 360 358 359 359 358 361 361 361 359 355 355 350 348 350 351 356 354 353 352 353 355 356
353 353 353 354 357 360 361 360 360 360 359 360 359 359 361 361 361 360 360 360 362 361 359 358 357 358 357 359 358 356 354 355 347 348 350 348 359 353 352 352 353 352 352
351 352 350 350 352 353 354 360 360 360 359 359 359 360 360 361 361 360 361 363 360 359 359 358 357 357 357 358 358 355 355 355 345 344 347 350 359 354 352 353 353 352 351
349 347 348 349 349 351 352 355 358 360 359 359 358 359 356 348 350 354 358 361 360 360 358 357 356 357 356 356 358 357 355 344 345 346 346 356 358 358 352 351 353 352 351
343 347 348 348 348 350 355 351 349 352 349 350 349 347 346 348 348 353 357 360 360 356 355 353 357 353 348 345 346 354 346 345 347 347 348 356 356 355 351 351 350 349 348
344 347 346 347 348 349 350 349 349 347 346 345 346 346 346 347 348 346 346 349 349 349 340 346 345 345 342 340 342 345 344 345 345 348 350 356 357 357 352 350 350 350 349
343 344 345 347 347 345 349 348 347 346 344 343 343 344 344 343 342 341 342 343 339 337 339 340 343 345 345 347 341 342 344 343 344 346 346 355 357 353 351 354 352 350 350
342 343 345 346 346 345 347 346 345 345 343 344 346 343 341 341 340 341 340 338 342 340 337 339 341 341 342 342 345 344 342 342 344 346 345 353 356 357 352 351 351 351 351
342 343 345 346 346 346 345 344 343 345 344 343 342 344 340 338 340 339 338 333 340 339 334 338 338 339 343 337 339 342 341 342 343 346 348 347 354 355 354 353 352 352 352
342 344 343 346 347 346 344 344 343 344 343 341 343 344 344 339 339 337 339 339 341 342 342 341 342 343 340 338 336 339 340 340 342 345 346 345 348 356 356 356 356 355 354
341 341 344 349 348 345 344 343 343 342 343 345 346 345 344 341 344 341 340 340 342 342 342 341 339 341 338 336 334 335 337 339 340 341 343 344 346 349 353 357 358 357 357
341 342 341 346 345 345 344 343 342 343 344 346 346 345 346 346 348 343 341 341 342 342 341 343 339 338 338 337 337 338 339 340 338 340 338 340 341 346 344 349 358 360 359
341 340 342 344 345 347 344 343 343 342 344 345 348 347 349 348 348 344 343 345 345 342 340 342 338 339 338 334 338 339 338 338 338 338 337 339 338 339 340 341 342 347 357
338 339 341 342 343 344 343 341 341 340 344 347 348 349 349 347 345 344 344 344 344 340 340 342 344 337 338 337 334 335 334 335 336 337 339 338 341 342 341 342 342 344 345
336 337 339 342 343 342 343 342 343 343 344 343 344 346 349 347 341 345 343 344 344 343 343 343 342 337 335 335 333 330 325 327 332 334 337 338 337 340 343 344 344 345 344
335 336 340 341 342 342 344 343 341 341 341 343 343 343 347 347 346 347 344 344 343 342 341 342 338 334 333 337 338 333 326 323 328 328 330 336 337 337 338 341 344 345 346
336 339 341 341 338 343 344 342 340 338 336 339 341 344 346 349 349 346 347 345 343 341 340 343 343 341 338 336 335 341 335 332 329 322 327 330 332 333 333 337 340 342 343
339 339 342 340 339 342 342 341 339 336 337 339 342 343 344 346 348 350 347 341 345 342 340 342 345 343 343 341 339 338 334 333 333 327 322 325 328 330 333 334 337 337 338
341 340 342 340 340 342 342 341 338 335 336 338 339 342 343 344 346 349 345 342 343 341 341 343 342 344 342 343 344 340 340 336 334 331 327 328 326 330 332 334 336 337 339
Wind_Speed
4 5 11 14 14 13 12 12 11 11 12 12 10 13 13 13 13 14 14 15 14 16 17 16 18 18 18 18 17 17 18 17 17 15 17 16 15 14 13 13 11 9 14
8 7 13 14 13 13 12 11 11 9 11 12 11 12 12 12 13 13 14 15 15 15 16 16 18 17 16 17 17 17 17 16 15 16 15 16 17 15 14 15 15 11 16
10 8 9 13 14 13 12 11 10 10 9 9 12 11 12 12 12 13 13 15 15 15 15 16 17 16 17 16 16 16 16 16 15 15 14 5 6 15 15 15 15 15 14
9 6 7 12 13 12 12 12 12 12 10 8 10 11 11 11 12 12 13 14 15 14 16 15 16 15 15 15 15 16 14 15 15 11 5 5 8 14 15 13 14 13 14
7 6 8 13 13 13 12 11 12 13 12 10 10 10 12 12 12 12 12 14 14 14 15 14 13 12 11 11 9 7 13 14 13 9 6 5 4 10 14 14 13 14 13
7 6 10 14 13 12 11 11 10 11 11 11 11 10 10 11 12 13 12 14 14 14 13 13 10 9 8 9 10 14 14 14 11 5 5 6 5 12 13 12 14 14 12
6 5 6 11 11 10 10 11 10 10 9 10 12 11 11 12 11 12 12 12 13 13 12 12 11 10 9 11 13 14 13 13 5 5 5 5 5 13 12 12 12 11 10
9 6 5 11 11 10 10 10 9 10 9 9 12 12 11 12 12 12 11 12 11 12 11 11 10 10 12 12 11 11 12 12 7 5 5 4 8 12 11 11 11 10 11
7 5 5 5 8 10 10 9 10 9 10 10 12 12 13 12 11 10 10 10 11 12 12 11 12 10 8 8 11 11 11 11 5 3 4 2 6 11 10 10 9 9 9
5 4 5 4 5 4 4 9 8 10 9 10 10 12 12 11 11 11 9 9 10 11 11 10 9 9 8 8 11 11 11 11 4 3 2 2 5 10 9 8 8 8 7
5 3 3 5 5 4 3 5 7 9 9 10 10 10 7 4 5 6 6 9 10 11 11 9 9 11 9 7 7 8 9 3 3 2 0 5 4 9 8 7 6 6 5
6 4 4 5 5 4 2 3 3 4 4 4 5 6 4 4 2 4 5 8 8 9 10 6 11 9 7 3 3 2 2 4 2 2 1 5 5 7 6 5 4 4 3
8 5 5 5 4 3 3 2 1 3 2 3 5 4 3 2 3 3 3 3 3 6 3 4 4 2 3 1 1 1 4 4 2 2 2 4 5 6 5 4 3 3 2
9 7 6 6 5 3 3 2 2 3 2 2 2 3 3 2 3 3 2 3 3 3 3 2 2 3 4 3 3 3 4 3 3 1 2 6 5 4 4 4 4 3 2
9 8 8 7 6 5 4 3 2 2 3 3 3 3 4 3 3 3 3 2 2 2 3 3 3 3 1 2 4 5 6 5 5 3 2 8 6 6 5 5 5 4 5
7 8 8 8 6 6 4 5 3 2 2 4 3 4 5 3 3 3 2 1 2 1 2 2 2 4 4 3 2 2 2 3 3 4 3 3 8 8 7 6 6 7 8
6 7 7 7 7 7 6 5 3 3 3 3 4 5 5 4 3 3 2 2 2 0 3 2 4 3 3 3 1 1 1 1 3 4 4 3 4 8 8 8 8 9 10
7 8 6 7 8 7 6 5 4 3 3 3 3 4 6 5 5 4 3 2 2 2 3 4 4 2 2 0 2 2 3 3 4 5 4 3 3 3 6 10 9 10 11
11 8 6 7 9 7 5 3 4 4 3 3 3 4 5 6 4 3 1 1 2 2 3 3 2 1 1 1 1 2 3 4 5 4 5 5 5 4 3 7 10 11 12
8 8 7 4 7 6 4 4 3 2 2 3 2 3 6 3 4 3 1 2 3 2 3 2 1 1 1 2 3 3 3 3 3 4 5 4 4 5 5 5 4 5 12
7 7 8 8 5 5 3 3 3 2 1 1 2 4 6 5 4 4 2 3 2 1 2 2 0 3 3 2 3 3 2 2 4 4 3 4 5 5 5 5 4 4 5
10 8 7 8 8 4 4 2 3 2 2 0 1 1 1 4 5 4 3 3 3 2 1 1 4 2 1 2 2 1 4 4 3 2 2 4 6 4 5 6 5 6 5
11 11 10 9 9 6 6 4 3 3 3 2 1 1 2 2 3 3 3 3 4 2 2 2 3 3 2 2 1 3 2 2 3 3 1 4 5 3 5 5 6 6 6
14 10 9 8 8 7 7 5 5 4 3 3 3 2 2 3 3 3 3 4 3 0 2 1 1 2 2 3 2 2 1 3 1 4 3 2 2 5 6 4 5 5 6
13 13 10 7 7 7 7 6 5 3 2 2 1 3 2 2 4 4 3 4 4 2 2 1 3 2 1 1 2 2 2 1 2 2 2 4 3 4 4 4 4 4 5
11 11 10 10 7 7 7 7 8 7 6 3 3 3 2 2 2 4 3 4 3 2 4 2 1 2 2 2 2 2 2 2 2 2 2 2 2 4 2 3 3 4 5
Wind_Direction
195 167 153 144 139 133 115 112 106 112 122 119 114 115 110 107 102 103 104 102 99 102 104 106 99 103 108 110 110 107 106 105 104 102 93 96 90 87 87 88 83 75 80
142 154 155 144 133 120 119 117 117 114 116 121 115 108 106 110 106 110 108 107 102 101 98 103 104 108 103 100 104 103 102 98 100 97 100 92 90 88 87 93 86 83 77
137 150 152 135 131 129 125 124 123 122 116 115 114 119 117 117 110 111 109 108 107 104 109 106 104 106 105 106 103 96 97 98 102 97 87 74 76 88 87 85 84 86 85
134 132 135 131 137 134 128 130 132 130 126 121 123 126 121 118 116 114 110 112 111 110 108 110 107 107 111 113 108 94 104 105 101 84 52 51 83 82 81 85 85 89 91
103 108 137 142 138 136 138 134 127 134 130 136 128 123 116 116 113 115 111 110 111 110 114 111 106 110 113 122 127 110 122 105 98 78 65 67 71 89 83 83 81 87 92
119 134 149 146 135 136 125 131 128 129 138 140 128 125 122 119 122 115 111 105 108 110 111 109 105 97 122 129 125 130 115 107 96 68 62 73 79 84 86 83 83 82 81
131 138 132 133 133 134 132 132 130 131 132 128 133 129 134 127 125 124 116 106 108 111 114 112 103 82 72 126 124 121 116 114 91 76 68 67 71 101 96 92 89 90 83
141 138 149 141 136 144 138 134 131 126 130 129 117 119 120 133 132 129 122 106 105 108 114 112 105 92 80 110 122 115 115 112 89 81 73 82 104 91 97 94 95 85 72
136 132 124 134 151 149 138 135 135 131 123 128 119 126 123 128 137 138 124 117 114 107 103 99 110 104 81 96 129 118 113 111 78 88 99 70 99 100 102 99 90 85 80
119 122 134 130 99 121 135 140 135 127 132 113 129 128 133 140 138 132 107 108 101 103 100 93 100 78 56 72 127 124 125 121 101 92 96 146 136 108 109 108 107 96 94
129 129 127 116 118 126 130 156 142 140 131 130 127 132 105 57 69 98 131 108 100 90 82 83 85 80 70 54 148 133 117 112 119 120 156 139 107 125 116 111 93 100 97
149 160 144 136 142 157 151 114 99 88 79 81 78 73 58 57 97 108 111 108 91 76 53 79 86 86 73 40 12 84 132 141 144 153 226 148 145 124 123 128 127 122 117
157 161 160 145 154 166 127 105 69 85 95 83 100 103 73 66 71 67 61 48 70 62 55 55 55 56 100 143 19 113 150 152 159 185 234 197 186 161 146 157 166 171 157
163 166 158 157 160 193 153 149 143 116 118 128 139 149 128 103 75 73 61 39 25 26 59 73 5 22 347 288 233 198 181 165 171 196 245 214 213 188 189 200 205 214 235
165 168 168 160 168 169 164 162 186 163 147 156 169 151 135 145 130 93 80 26 344 24 32 17 18 10 35 307 214 194 180 174 184 194 208 224 225 224 226 227 237 251 262
168 179 165 167 169 155 179 179 208 184 168 145 160 157 159 148 136 124 137 219 308 13 50 8 354 353 346 21 100 133 167 146 201 201 204 251 228 236 245 253 262 269 272
174 172 173 165 155 160 187 187 178 213 143 157 158 168 178 159 168 166 163 227 259 39 40 14 14 2 30 32 50 108 89 188 214 222 219 230 256 247 251 258 267 272 276
143 169 167 167 159 162 189 189 200 174 149 157 157 147 163 153 155 181 187 227 291 13 20 21 6 27 63 280 188 207 193 201 242 248 236 236 245 259 273 265 266 270 274
158 148 166 143 144 151 172 177 191 153 157 138 136 136 146 149 166 167 166 282 343 4 32 9 344 321 23 348 269 212 225 210 209 231 246 241 246 254 265 276 277 271 273
151 140 145 156 133 133 126 104 83 95 116 137 154 147 136 134 135 148 153 344 30 28 5 8 292 309 34 350 320 319 268 209 206 224 244 250 244 252 258 263 273 279 275
149 151 157 149 156 134 115 106 94 155 68 30 117 148 147 159 169 157 153 122 64 63 291 251 121 12 11 8 9 338 350 309 255 242 244 243 259 255 253 259 263 272 284
170 163 166 167 161 157 125 125 125 145 120 13 95 71 125 149 163 170 136 138 117 118 298 16 51 0 346 23 108 98 0 333 324 275 264 263 264 274 268 258 255 259 265
179 174 180 181 164 155 132 105 66 49 41 28 4 304 213 203 192 169 142 129 115 132 80 346 73 46 357 339 339 133 22 284 323 326 307 245 264 270 272 270 262 259 266
185 178 183 174 160 154 153 131 142 156 166 225 174 206 197 210 222 209 159 140 131 146 81 341 82 78 61 1 340 42 144 169 334 337 332 323 248 259 270 280 265 271 269
173 183 182 162 164 156 160 154 145 155 185 218 188 198 193 179 206 228 208 160 160 179 134 59 57 49 76 19 29 344 15 36 86 125 299 323 332 278 268 272 276 298 297
173 176 174 169 172 164 158 162 161 177 192 187 196 207 186 206 213 222 200 184 179 180 168 171 129 74 357 51 27 33 52 37 331 7 11 307 273 294 304 317 310 286 286